TimePDT,TemperatureF,Dew PointF,Humidity,Sea Level PressureIn,VisibilityMPH,Wind Direction,Wind SpeedMPH,Gust SpeedMPH,PrecipitationIn,Events,Conditions,WindDirDegrees,DateUTC
12:15 AM,71.6,51.8,50,29.87,10.0,NNW,4.6,-,N/A,,Clear,330,2013-08-03 07:15:00
12:35 AM,71.6,48.2,43,29.87,10.0,NNW,3.5,-,N/A,,Clear,340,2013-08-03 07:35:00
12:55 AM,71.6,48.2,43,29.87,10.0,NNW,3.5,-,N/A,,Clear,340,2013-08-03 07:55:00
1:15 AM,71.6,48.2,43,29.87,10.0,North,6.9,-,N/A,,Clear,360,2013-08-03 08:15:00
1:35 AM,69.8,50.0,49,29.87,10.0,North,6.9,-,N/A,,Clear,350,2013-08-03 08:35:00
1:55 AM,69.8,48.2,46,29.87,10.0,North,5.8,-,N/A,,Clear,350,2013-08-03 08:55:00
2:15 AM,66.2,48.2,52,29.87,10.0,Calm,Calm,-,N/A,,Clear,0,2013-08-03 09:15:00
2:35 AM,68.0,50.0,52,29.87,10.0,Calm,Calm,-,N/A,,Clear,0,2013-08-03 09:35:00
2:55 AM,62.6,48.2,59,29.87,10.0,Calm,Calm,-,N/A,,Clear,0,2013-08-03 09:55:00
3:15 AM,62.6,50.0,63,29.87,10.0,Calm,Calm,-,N/A,,Clear,0,2013-08-03 10:15:00
3:35 AM,62.6,48.2,59,29.87,10.0,Calm,Calm,-,N/A,,Clear,0,2013-08-03 10:35:00
3:55 AM,60.8,50.0,68,29.87,10.0,Calm,Calm,-,N/A,,Clear,0,2013-08-03 10:55:00
4:15 AM,60.8,48.2,63,29.87,10.0,Calm,Calm,-,N/A,,Clear,0,2013-08-03 11:15:00
4:35 AM,60.8,50.0,68,29.87,10.0,Calm,Calm,-,N/A,,Clear,0,2013-08-03 11:35:00
4:55 AM,60.8,48.2,63,29.87,10.0,Calm,Calm,-,N/A,,Clear,0,2013-08-03 11:55:00
5:15 AM,59.0,48.2,67,29.87,10.0,Calm,Calm,-,N/A,,Clear,0,2013-08-03 12:15:00
5:35 AM,59.0,48.2,67,29.88,10.0,Calm,Calm,-,N/A,,Clear,0,2013-08-03 12:35:00
5:55 AM,57.2,48.2,72,29.89,10.0,Calm,Calm,-,N/A,,Clear,0,2013-08-03 12:55:00
6:15 AM,57.2,48.2,72,29.89,10.0,Calm,Calm,-,N/A,,Clear,0,2013-08-03 13:15:00
6:35 AM,59.0,48.2,67,29.89,10.0,Calm,Calm,-,N/A,,Clear,0,2013-08-03 13:35:00
6:55 AM,59.0,50.0,72,29.90,10.0,Calm,Calm,-,N/A,,Clear,0,2013-08-03 13:55:00
7:15 AM,60.8,50.0,68,29.90,10.0,Calm,Calm,-,N/A,,Clear,0,2013-08-03 14:15:00
7:35 AM,62.6,51.8,68,29.91,10.0,Calm,Calm,-,N/A,,Clear,0,2013-08-03 14:35:00
7:55 AM,62.6,51.8,68,29.92,10.0,Calm,Calm,-,N/A,,Clear,0,2013-08-03 14:55:00
8:15 AM,66.2,51.8,60,29.92,10.0,Calm,Calm,-,N/A,,Clear,0,2013-08-03 15:15:00
8:35 AM,66.2,53.6,64,29.92,10.0,SSE,3.5,-,N/A,,Clear,160,2013-08-03 15:35:00
8:55 AM,68.0,53.6,60,29.92,10.0,SSE,4.6,-,N/A,,Clear,150,2013-08-03 15:55:00
9:15 AM,69.8,53.6,56,29.93,10.0,SSE,5.8,-,N/A,,Clear,160,2013-08-03 16:15:00
9:35 AM,71.6,53.6,53,29.92,10.0,SSE,5.8,-,N/A,,Clear,150,2013-08-03 16:35:00
9:55 AM,73.4,53.6,50,29.92,10.0,South,5.8,-,N/A,,Clear,190,2013-08-03 16:55:00
10:15 AM,75.2,55.4,50,29.92,10.0,South,5.8,-,N/A,,Clear,190,2013-08-03 17:15:00
10:35 AM,77.0,55.4,47,29.92,10.0,SSW,3.5,-,N/A,,Clear,210,2013-08-03 17:35:00
10:55 AM,78.8,53.6,42,29.92,10.0,South,4.6,-,N/A,,Clear,190,2013-08-03 17:55:00
11:15 AM,80.6,55.4,42,29.92,10.0,Calm,Calm,-,N/A,,Clear,0,2013-08-03 18:15:00
11:35 AM,82.4,55.4,39,29.91,10.0,WNW,5.8,-,N/A,,Clear,300,2013-08-03 18:35:00
11:55 AM,84.2,55.4,37,29.91,9.0,NW,3.5,-,N/A,,Clear,310,2013-08-03 18:55:00
12:15 PM,87.8,57.2,35,29.90,10.0,WNW,5.8,-,N/A,,Clear,290,2013-08-03 19:15:00
12:35 PM,87.8,55.4,33,29.90,10.0,West,6.9,-,N/A,,Clear,280,2013-08-03 19:35:00
12:55 PM,87.8,55.4,33,29.90,10.0,WNW,4.6,-,N/A,,Clear,300,2013-08-03 19:55:00
1:15 PM,89.6,53.6,29,29.89,10.0,WNW,6.9,-,N/A,,Clear,290,2013-08-03 20:15:00
1:35 PM,89.6,51.8,27,29.89,10.0,West,6.9,-,N/A,,Clear,280,2013-08-03 20:35:00
1:55 PM,91.4,48.2,23,29.88,10.0,West,4.6,-,N/A,,Clear,270,2013-08-03 20:55:00
2:15 PM,91.4,46.4,21,29.88,10.0,WNW,3.5,-,N/A,,Clear,290,2013-08-03 21:15:00
2:35 PM,91.4,48.2,23,29.87,10.0,West,8.1,-,N/A,,Clear,260,2013-08-03 21:35:00
2:55 PM,93.2,44.6,19,29.87,10.0,WSW,6.9,-,N/A,,Clear,250,2013-08-03 21:55:00
3:15 PM,93.2,46.4,20,29.86,10.0,West,5.8,-,N/A,,Clear,280,2013-08-03 22:15:00
3:35 PM,93.2,44.6,19,29.85,10.0,WNW,8.1,-,N/A,,Clear,300,2013-08-03 22:35:00
3:55 PM,95.0,41.0,15,29.85,10.0,West,6.9,-,N/A,,Clear,280,2013-08-03 22:55:00
4:15 PM,93.2,44.6,19,29.84,10.0,NW,5.8,-,N/A,,Clear,320,2013-08-03 23:15:00
4:35 PM,93.2,41.0,16,29.84,10.0,West,6.9,-,N/A,,Clear,270,2013-08-03 23:35:00
4:55 PM,95.0,41.0,15,29.83,10.0,West,6.9,-,N/A,,Clear,270,2013-08-03 23:55:00
5:15 PM,93.2,42.8,17,29.83,10.0,West,8.1,-,N/A,,Clear,270,2013-08-04 00:15:00
5:35 PM,93.2,44.6,19,29.82,10.0,West,5.8,-,N/A,,Clear,270,2013-08-04 00:35:00
5:55 PM,93.2,44.6,19,29.82,10.0,WNW,6.9,-,N/A,,Clear,290,2013-08-04 00:55:00
6:15 PM,93.2,42.8,17,29.82,10.0,NNW,9.2,-,N/A,,Clear,330,2013-08-04 01:15:00
6:35 PM,93.2,41.0,16,29.82,10.0,NW,6.9,-,N/A,,Clear,310,2013-08-04 01:35:00
6:55 PM,93.2,39.2,15,29.82,10.0,NW,5.8,-,N/A,,Clear,310,2013-08-04 01:55:00
7:15 PM,93.2,37.4,14,29.82,10.0,WNW,5.8,-,N/A,,Clear,300,2013-08-04 02:15:00
7:35 PM,91.4,39.2,16,29.82,10.0,NW,5.8,-,N/A,,Clear,320,2013-08-04 02:35:00
7:55 PM,87.8,39.2,18,29.82,10.0,North,3.5,-,N/A,,Clear,350,2013-08-04 02:55:00
8:15 PM,82.4,48.2,30,29.82,10.0,Calm,Calm,-,N/A,,Clear,0,2013-08-04 03:15:00
8:35 PM,80.6,46.4,30,29.82,10.0,Calm,Calm,-,N/A,,Clear,0,2013-08-04 03:35:00
8:55 PM,78.8,53.6,42,29.83,10.0,Calm,Calm,-,N/A,,Clear,0,2013-08-04 03:55:00
9:15 PM,78.8,51.8,39,29.84,10.0,West,3.5,-,N/A,,Clear,280,2013-08-04 04:15:00
9:35 PM,78.8,51.8,39,29.85,10.0,WNW,3.5,-,N/A,,Clear,300,2013-08-04 04:35:00
9:55 PM,77.0,51.8,41,29.86,10.0,Calm,Calm,-,N/A,,Clear,0,2013-08-04 04:55:00
10:15 PM,73.4,53.6,50,29.86,10.0,Calm,Calm,-,N/A,,Clear,0,2013-08-04 05:15:00
10:35 PM,73.4,53.6,50,29.87,10.0,NW,3.5,-,N/A,,Clear,320,2013-08-04 05:35:00
10:55 PM,75.2,53.6,47,29.87,10.0,NNW,3.5,-,N/A,,Clear,330,2013-08-04 05:55:00
11:15 PM,73.4,53.6,50,29.87,10.0,NNW,4.6,-,N/A,,Clear,340,2013-08-04 06:15:00
11:35 PM,73.4,51.8,47,29.87,10.0,NW,5.8,-,N/A,,Clear,320,2013-08-04 06:35:00
11:55 PM,75.2,50.0,41,29.88,10.0,NW,6.9,-,N/A,,Clear,320,2013-08-04 06:55:00